Regional Weather Roundup
Issued by NWS

Home | Current Version | Previous Version | Graphics & Text | Print | Product List | Glossary On
Versions: 1 2 3 4 5 6 7 8 9 10 11 12 13 14 15 16 17 18 19 20 21 22 23 24 25 26 27 28 29 30 31 32 33 34 35 36 37 38 39 40 41 42 43 44 45 46 47 48 49 50
000
ASUS43 KDMX 300701
RWRIA

WEATHER ROUNDUP FOR IOWA
NATIONAL WEATHER SERVICE DES MOINES IA
200 AM CDT SUN APR 30 2017

NOTE: "FAIR" INDICATES FEW OR NO CLOUDS BELOW 12,000 FEET WITH NO
SIGNIFICANT WEATHER AND/OR OBSTRUCTIONS TO VISIBILITY.

* - THESE STATIONS ARE NOT NWS STATIONS...THUS NOT UNDER NWS
QUALITY CONTROL.  THEY ALSO DO NOT REPORT WEATHER SUCH
AS PRECIPITATION OR FOG.

IAZ001>003-012>014-020>022-031>034-043>046-300800-
   NORTHWEST IOWA

CITY           SKY/WX    TMP DP  RH WIND       PRES   REMARKS
CARROLL *      MIX PCPN  39  39 100 NE22      29.95F WCI  29
CHEROKEE *     DRIZZLE   43  33  67 NE14G23   30.03F
DENISON *      CLOUDY    39  37  93 NE15G24   29.96F FOG     WCI  31
ORANGE CITY *  CLOUDY    45  30  57 NE8       30.05S
SHELDON *      CLOUDY    45  30  57 NE10      30.04F
SIOUX CITY     LGT RAIN  44  35  70 NE23      30.03F
SPENCER        CLOUDY    46  31  55 NE18      30.04F
STORM LAKE *   MIX PCPN  39  36  87 NE21      30.01S WCI  29
$$

IAZ055>058-069>071-079>083-090>094-300800-
   SOUTHWEST IOWA

CITY           SKY/WX    TMP DP  RH WIND       PRES   REMARKS
ATLANTIC *     MIX PCPN  39  39 100 NE16G26   29.91S WCI  30
AUDUBON *      LGT RAIN  39  36  87 NE17G28   29.93F WCI  30
CLARINDA *       N/A     41  41 100 NE17      29.88F FOG
COUNCIL BLFS * CLOUDY    39  39 100 NE13G22   29.92F FOG     WCI  32
CRESTON *      MIX PCPN  39  39 100 NE23G32   29.87F WCI  29
HARLAN  *      CLOUDY    39  39 100 NE21G30   29.96F FOG     WCI  29
LAMONI         CLOUDY    40  39  97 NE18G28   29.84R WCI  31
RED OAK *      LGT RAIN  39  39 100 NE16G25   29.90S WCI  30
SHENANDOAH *   CLOUDY    41  39  93 NE23G31   29.87F FOG
$$

IAZ047>049-059>061-072>074-084-300800-
   CENTRAL IOWA

CITY           SKY/WX    TMP DP  RH WIND       PRES   REMARKS
AMES           LGT RAIN  39  39 100 NE15G28   29.94F FOG     WCI  31
ANKENY *       MIX PCPN  39  37  93 NE13G21   29.93F WCI  32
BOONE *        CLOUDY    39  39 100 NE21G26   29.92F FOG     WCI  29
CHARITON *     CLOUDY    41  39  93 NE17G25   29.83F FOG
DES MOINES     DRIZZLE   41  38  89 NE17G23   29.90F
GRINNELL*      LGT RAIN  38  37  97 NE23      29.90F WCI  28
KNOXVILLE *    CLOUDY    41  39  93 NE18      29.86S
MARSHALLTOWN   CLOUDY    39  38  96 NE20G31   29.94F FOG     WCI  29
NEWTON *       CLOUDY    39  37  93 NE16G24   29.89F WCI  30
PELLA *        CLOUDY    40  39  97 E8G23     29.89F WCI  35
PERRY *        CLOUDY    39  38  96 NE17G24   29.94F FOG     WCI  30
$$

IAZ004>006-015-016-023>025-035-036-300800-
   NORTH CENTRAL IOWA

CITY           SKY/WX    TMP DP  RH WIND       PRES   REMARKS
ALGONA *       LGT RAIN  43  36  75 NE18      30.04F
CLARION *      CLOUDY    39  39 100 NE24      30.00F WCI  28
ESTHERVILLE    CLOUDY    44  32  62 NE13      30.06F
FORT DODGE *   CLOUDY    37  34  87 NE16G24   30.01S WCI  28
MASON CITY     LGT RAIN  40  32  73 NE18G24   30.04F WCI  31
FOREST CITY *  DRIZZLE   43  28  56 NE12      30.05F
WEBSTER CITY * LGT RAIN  39  36  87 NE21G28   29.96F WCI  29
IOWA FALLS *   CLOUDY    39  37  92 NE20G29   29.97F WCI  29
$$

IAZ007>011-017>019-026>030-037>042-050>054-066-300800-
   NORTHEAST IOWA

CITY           SKY/WX    TMP DP  RH WIND       PRES   REMARKS
CEDAR RAPIDS   CLOUDY    40  40 100 NE21G26   29.93F WCI  30
CHARLES CITY * CLOUDY    41  34  75 E17G24    30.04F
CLINTON *      CLOUDY    43  41  93 NE21      29.94F
DECORAH *      CLOUDY    43  28  56 E14G24    30.04F
DUBUQUE        CLOUDY    39  37  92 NE17G26   29.96F WCI  30
MONTICELLO *   CLOUDY    41  39  93 NE12G20   29.98F
OELWEIN *      CLOUDY    41  36  81 NE21      29.99F
WATERLOO       CLOUDY    39  36  89 NE16      29.98F WCI  30
$$

IAZ064-065-067-068-078-300800-
   EAST CENTRAL IOWA

CITY           SKY/WX    TMP DP  RH WIND       PRES   REMARKS
DAVENPORT      CLOUDY    42  40  92 NE15      29.94S
IOWA CITY      CLOUDY    43  39  86 NE14G23   29.95F
MUSCATINE *    CLOUDY    43  41  93 NE14      29.92F
QUAD CITIES    CLOUDY    45  41  86 NE10      29.92R
$$

IAZ062-063-075>077-085>089-095>099-300800-
   SOUTHEAST IOWA

CITY           SKY/WX    TMP DP  RH WIND       PRES   REMARKS
BURLINGTON     CLOUDY    43  43 100 NE13G21   29.87F
FAIRFIELD *    CLOUDY    41  39  93 NE20G26   29.87F
FORT MADISON * CLOUDY    43  43 100 E10       29.88F
KEOKUK *       LGT RAIN  43  43 100 NE7G14    29.87F
OSKALOOSA *    CLOUDY    39  38  97 E18G31    29.87F WCI  30
OTTUMWA        CLOUDY    41  41 100 E16G33    29.86F
WASHINGTON *   CLOUDY    41  41 100 NE17G24   29.91F
$$

ABBREVIATIONS USED IN REMARKS
   TC - TEMPERATURES IN CELSIUS
  WCI - WIND CHILL INDEX
   HX - HEAT INDEX
  VSB - VISIBILITY
$$





USA.gov is the U.S. government's official web portal to all federal, state and local government web resources and services.